This demonstration page uses our WeatherBlox Daily Observations layout. Learn more.

Left ArrowRight Arrow

41.86663, -103.66717

Hourly Observations for February 11, 2016

Temp ( °F °C ) Dew Point ( °F °C ) Humidity (%) Winds ( mph kmh ) Pressure ( in mb ) Visibility ( mi km ) Precip ( " mm )
12:53 am 00:53 Clear 30 -1.1 24 -4.4 79 79 NNW 7 11 30.13 1020 10 16 N/A
1:53 am 01:53 Clear 30 -1.1 24 -4.4 79 79 NNW 8 13 30.10 1019 10 16 N/A
2:53 am 02:53 Clear 31 -0.6 23 -5 72 72 NNW 7 11 30.08 1019 10 16 N/A
3:53 am 03:53 Clear 31 -0.6 24 -4.4 76 76 N 6 9 30.09 1019 10 16 N/A
4:53 am 04:53 Clear 33 0.6 24 -4.4 70 70 N 5 7 30.09 1019 10 16 N/A
5:53 am 05:53 Partly Cloudy 33 0.6 24 -4.4 70 70 N 3 6 30.11 1020 10 16 N/A
6:53 am 06:53 Mostly Clear 36 2.2 26 -3.3 67 67 WNW 7 11 30.09 1019 10 16 N/A
7:53 am 07:53 Mostly Cloudy 36 2.2 26 -3.3 67 67 NW 8 13 30.12 1020 10 16 N/A
8:53 am 08:53 Sunny 42 5.6 26 -3.3 53 53 WNW 9 15 30.10 1019 10 16 N/A
9:53 am 09:53 Sunny 50 10 27 -2.8 41 41 WNW 15 24 30.11 1020 10 16 N/A
10:53 am 10:53 Sunny 55 12.8 25 -3.9 31 31 NW 20 31 30.11 1020 10 16 N/A
11:53 am 11:53 Sunny 58 14.4 27 -2.8 31 31 WNW 17 28 30.11 1020 10 16 N/A
12:53 pm 12:53 Sunny 58 14.4 28 -2.2 32 32 NW 22 35 30.09 1019 10 16 N/A
1:53 pm 13:53 Sunny 59 15 28 -2.2 31 31 undefined N/A 30.08 1019 10 16 N/A
2:53 pm 14:53 Sunny 58 14.4 26 -3.3 29 29 NW 29 46 30.09 1019 10 16 N/A
3:53 pm 15:53 Sunny 56 13.3 26 -3.3 32 32 NW 24 39 30.12 1020 10 16 N/A
4:53 pm 16:53 Sunny 51 10.6 27 -2.8 39 39 NNW 12 19 30.16 1022 10 16 N/A
5:53 pm 17:53 Clear 42 5.6 27 -2.8 55 55 NNW 5 7 30.22 1023 10 16 N/A
6:53 pm 18:53 Clear 41 5 26 -3.3 55 55 N N/A 30.24 1024 10 16 N/A
7:53 pm 19:53 Clear 37 2.8 27 -2.8 67 67 N 5 7 30.26 1025 10 16 N/A
8:53 pm 20:53 Clear 34 1.1 27 -2.8 76 76 NW 8 13 30.26 1025 10 16 N/A
9:53 pm 21:53 Clear 32 undefined 26 -3.3 79 79 NW 7 11 30.25 1025 10 16 N/A
10:53 pm 22:53 Clear 33 0.6 27 -2.8 78 78 N 3 6 30.24 1024 10 16 N/A
11:53 pm 23:53 Clear 31 -0.6 26 -3.3 82 82 NNW 6 9 30.24 1024 10 16 N/A

Powered by AerisWeather